When you browse on this site, cookies collect data to enhance your experience and personalize the content and advertising you see.
Visit our Privacy Policy to learn more. By continuing to use the site, you agree to this use of cookies and data.
  • In Portugal
  • List of Countries
  • For 7 days
  • Water Temperature
  • Satellite Maps
  • Weather Map
  • Weather Widgets
  • user-avatar
    Login

    Hourly Weather Jablow

    Today, 20 March, Wednesday

    Time Temperature Precipitation Wind Pressure Humidity
    00:00 0°C° 0 mm 1 mps 723 mmHg 80%
    01:00 0°C° 0 mm 1 mps 724 mmHg 81%
    02:00 0°C° 0 mm 1 mps 724 mmHg 82%
    03:00 0°C° 0 mm 1 mps 724 mmHg 83%
    04:00 0°C° 0 mm 1 mps 724 mmHg 84%
    05:00 0°C° 0 mm 1 mps 724 mmHg 82%
    06:00 +1°C° 0 mm 1 mps 725 mmHg 81%
    07:00 +1°C° 0 mm 1 mps 725 mmHg 77%
    08:00 +3°C° 0 mm 1 mps 726 mmHg 68%
    09:00 +3°C° 0 mm 2 mps 726 mmHg 60%
    10:00 +5°C° 0 mm 2 mps 726 mmHg 52%
    11:00 +6°C° 0 mm 2 mps 726 mmHg 49%
    12:00 +7°C° 0 mm 2 mps 726 mmHg 45%
    13:00 +7°C° 0 mm 2 mps 727 mmHg 42%
    14:00 +7°C° 0 mm 2 mps 726 mmHg 43%
    15:00 +7°C° 0 mm 2 mps 726 mmHg 43%
    16:00 +8°C° 0 mm 2 mps 726 mmHg 44%
    17:00 +6°C° 0 mm 2 mps 726 mmHg 51%
    18:00 +5°C° 0 mm 1 mps 726 mmHg 58%
    19:00 +4°C° 0 mm 1 mps 726 mmHg 65%
    20:00 +4°C° 0 mm 1 mps 726 mmHg 67%
    21:00 +3°C° 0 mm 1 mps 726 mmHg 68%
    22:00 +3°C° 0 mm 1 mps 726 mmHg 69%
    23:00 +3°C° 0 mm 1 mps 726 mmHg 69%

    Tomorrow, 21 March, Thursday

    Time Temperature Precipitation Wind Pressure Humidity
    00:00 +3°C° 0 mm 1 mps 727 mmHg 68%
    01:00 +3°C° 0 mm 1 mps 727 mmHg 68%
    02:00 +2°C° 0 mm 2 mps 726 mmHg 69%
    03:00 +2°C° 0 mm 2 mps 726 mmHg 70%
    04:00 +2°C° 0 mm 2 mps 726 mmHg 71%
    05:00 +2°C° 0 mm 2 mps 726 mmHg 72%
    06:00 +2°C° 0 mm 2 mps 727 mmHg 72%
    07:00 +2°C° 0 mm 2 mps 727 mmHg 73%
    08:00 +5°C° 0 mm 2 mps 727 mmHg 70%
    09:00 +7°C° 0 mm 2 mps 727 mmHg 66%
    10:00 +9°C° 0 mm 2 mps 728 mmHg 63%
    11:00 +10°C° 0 mm 2 mps 728 mmHg 61%
    12:00 +10°C° 0 mm 2 mps 728 mmHg 60%
    13:00 +12°C° 0 mm 2 mps 728 mmHg 59%
    14:00 +12°C° 0 mm 2 mps 727 mmHg 59%
    15:00 +13°C° 0 mm 2 mps 727 mmHg 60%
    16:00 +13°C° 0 mm 2 mps 726 mmHg 60%
    17:00 +11°C° 0 mm 1 mps 726 mmHg 67%
    18:00 +10°C° 0 mm 1 mps 726 mmHg 73%
    19:00 +8°C° 0 mm 1 mps 726 mmHg 80%
    20:00 +8°C° 0 mm 1 mps 726 mmHg 82%
    21:00 +7°C° 0 mm 1 mps 726 mmHg 84%
    22:00 +7°C° 0 mm 1 mps 726 mmHg 87%
    23:00 +7°C° 0 mm 1 mps 726 mmHg 87%

    Day after tomorrow, 22 March, Friday

    Time Temperature Precipitation Wind Pressure Humidity
    00:00 +6°C° 0 mm 1 mps 726 mmHg 88%
    01:00 +6°C° 0 mm 1 mps 726 mmHg 88%
    02:00 +6°C° 0 mm 1 mps 726 mmHg 88%
    03:00 +6°C° 0 mm 1 mps 726 mmHg 88%
    04:00 +6°C° 0 mm 1 mps 725 mmHg 88%
    05:00 +6°C° 0 mm 1 mps 725 mmHg 87%
    06:00 +6°C° 0 mm 1 mps 726 mmHg 87%
    07:00 +7°C° 0 mm 1 mps 726 mmHg 86%
    08:00 +8°C° 0 mm 0 mps 726 mmHg 78%
    09:00 +10°C° 0 mm 0 mps 726 mmHg 71%
    10:00 +12°C° 0 mm 0 mps 727 mmHg 63%
    11:00 +13°C° 0 mm 0 mps 726 mmHg 60%
    12:00 +14°C° 0 mm 0 mps 726 mmHg 57%
    13:00 +15°C° 0 mm 0 mps 726 mmHg 53%
    14:00 +15°C° 0 mm 0 mps 725 mmHg 53%
    15:00 +16°C° 0 mm 1 mps 725 mmHg 53%
    16:00 +16°C° 0 mm 1 mps 724 mmHg 53%
    17:00 +14°C° 0 mm 1 mps 724 mmHg 59%
    18:00 +13°C° 0 mm 1 mps 724 mmHg 66%
    19:00 +11°C° 0 mm 1 mps 724 mmHg 72%
    20:00 +11°C° 0 mm 1 mps 724 mmHg 73%
    21:00 +9°C° 0 mm 2 mps 724 mmHg 74%
    22:00 +9°C° 0 mm 2 mps 724 mmHg 75%
    23:00 +9°C° 0 mm 2 mps 723 mmHg 75%

    23 March, Saturday

    Time Temperature Precipitation Wind Pressure Humidity
    00:00 +8°C° 0 mm 2 mps 723 mmHg 76%
    01:00 +8°C° 0 mm 2 mps 723 mmHg 76%
    02:00 +7°C° 0 mm 2 mps 723 mmHg 77%
    03:00 +7°C° 0 mm 2 mps 723 mmHg 77%
    04:00 +7°C° 0 mm 2 mps 722 mmHg 77%
    05:00 +7°C° 0 mm 2 mps 723 mmHg 76%
    06:00 +7°C° 0 mm 2 mps 723 mmHg 76%
    07:00 +7°C° 0 mm 2 mps 723 mmHg 75%
    08:00 +9°C° 0 mm 2 mps 723 mmHg 67%
    09:00 +13°C° 0 mm 2 mps 723 mmHg 59%
    10:00 +15°C° 0 mm 2 mps 724 mmHg 51%
    11:00 +15°C° 0 mm 2 mps 723 mmHg 50%
    12:00 +16°C° 0 mm 3 mps 723 mmHg 49%
    13:00 +17°C° 0 mm 3 mps 723 mmHg 47%
    14:00 +16°C° 0 mm 3 mps 723 mmHg 49%
    15:00 +16°C° 0 mm 3 mps 723 mmHg 51%
    16:00 +16°C° 0 mm 3 mps 723 mmHg 53%
    17:00 +13°C° 0 mm 3 mps 723 mmHg 61%
    18:00 +12°C° 0 mm 3 mps 723 mmHg 70%
    19:00 +10°C° 0 mm 3 mps 723 mmHg 78%
    20:00 +9°C° 0 mm 3 mps 723 mmHg 82%
    21:00 +9°C° 0 mm 2 mps 723 mmHg 86%
    22:00 +8°C° 0 mm 2 mps 724 mmHg 91%
    23:00 +8°C° 0 mm 3 mps 724 mmHg 87%

    24 March, Sunday

    Time Temperature Precipitation Wind Pressure Humidity
    00:00 +7°C° 0 mm 3 mps 724 mmHg 84%
    01:00 +7°C° 0 mm 3 mps 724 mmHg 81%
    02:00 +5°C° 0 mm 3 mps 723 mmHg 76%
    03:00 +5°C° 0 mm 2 mps 723 mmHg 72%
    04:00 +4°C° 0 mm 2 mps 723 mmHg 68%
    05:00 +3°C° 0 mm 2 mps 723 mmHg 67%
    06:00 +3°C° 0 mm 2 mps 723 mmHg 66%
    07:00 +3°C° 0 mm 2 mps 723 mmHg 65%
    08:00 +4°C° 0 mm 2 mps 723 mmHg 63%
    09:00 +5°C° 0 mm 2 mps 723 mmHg 60%
    10:00 +7°C° 0 mm 2 mps 723 mmHg 57%
    11:00 +8°C° 0 mm 2 mps 722 mmHg 56%
    12:00 +9°C° 0 mm 2 mps 722 mmHg 54%
    13:00 +12°C° 0 mm 1 mps 722 mmHg 53%
    14:00 +10°C° 0 mm 2 mps 721 mmHg 55%
    15:00 +10°C° 0 mm 2 mps 720 mmHg 56%
    16:00 +10°C° 0 mm 2 mps 720 mmHg 58%
    17:00 +9°C° 0 mm 2 mps 719 mmHg 62%
    18:00 +8°C° 0 mm 1 mps 719 mmHg 66%
    19:00 +7°C° 0 mm 1 mps 719 mmHg 70%
    20:00 +7°C° 0 mm 1 mps 719 mmHg 73%
    21:00 +5°C° 0 mm 0 mps 718 mmHg 75%
    22:00 +5°C° 0 mm 0 mps 718 mmHg 78%
    23:00 +5°C° 0 mm 1 mps 718 mmHg 79%

    25 March, Monday

    Time Temperature Precipitation Wind Pressure Humidity
    00:00 +5°C° 0 mm 1 mps 717 mmHg 80%
    01:00 +5°C° 0 mm 1 mps 717 mmHg 81%
    02:00 +5°C° 0 mm 1 mps 717 mmHg 79%
    03:00 +3°C° 0 mm 2 mps 716 mmHg 77%
    04:00 +3°C° 0 mm 2 mps 716 mmHg 75%
    05:00 +3°C° 0.1 mm 2 mps 716 mmHg 76%
    06:00 +3°C° 0.1 mm 3 mps 716 mmHg 78%
    07:00 +3°C° 0.1 mm 4 mps 716 mmHg 79%
    08:00 +3°C° 0 mm 5 mps 716 mmHg 71%
    09:00 +3°C° 0 mm 6 mps 716 mmHg 63%
    10:00 +4°C° 0 mm 6 mps 715 mmHg 55%
    11:00 +4°C° 0 mm 7 mps 715 mmHg 57%
    12:00 +4°C° 0 mm 7 mps 714 mmHg 58%
    13:00 +4°C° 0 mm 7 mps 714 mmHg 60%
    14:00 +4°C° 0.2 mm 8 mps 714 mmHg 63%
    15:00 +2°C° 0.2 mm 8 mps 713 mmHg 66%
    16:00 +1°C° 0.2 mm 9 mps 713 mmHg 68%
    17:00 +1°C° 0.1 mm 8 mps 713 mmHg 68%
    18:00 0°C° 0.1 mm 7 mps 713 mmHg 67%
    19:00 -1°C° 0.1 mm 6 mps 713 mmHg 66%
    20:00 -2°C° 0 mm 6 mps 713 mmHg 68%
    21:00 -2°C° 0 mm 7 mps 713 mmHg 69%
    22:00 -3°C° 0 mm 7 mps 713 mmHg 70%
    23:00 -3°C° 0.1 mm 7 mps 713 mmHg 70%
    Show more